Wind_Speed
40 39 40 40 42 45 46 46 46 46 46 46 47 47 44 45 46 46 46 45 44 42 41 40 40 39 39 38 39 39 39 39 39 38 38 37 37 37 37 37 37 37 36 36
38 37 36 38 40 42 44 44 44 44 45 46 47 46 43 44 46 46 45 45 44 43 42 41 41 40 39 39 39 39 39 40 40 39 39 39 39 40 39 39 39 38 38 38
35 34 34 35 37 38 41 41 41 41 41 43 44 44 42 42 45 45 45 44 43 42 41 41 41 41 40 40 40 40 40 41 41 41 41 42 42 41 41 40 40 40 41 42
34 33 32 33 33 34 35 36 36 37 38 39 41 41 39 40 42 44 43 43 42 41 41 41 41 41 40 40 40 41 41 42 42 43 43 43 43 43 42 43 43 44 44 45
33 33 32 32 32 31 31 32 33 33 35 36 37 38 36 37 39 41 41 41 40 40 40 40 41 41 41 41 41 42 43 43 44 45 45 45 45 45 45 46 46 46 47 47
31 32 32 31 31 31 30 30 30 31 32 33 33 34 33 34 35 37 38 38 38 39 39 39 40 40 41 41 42 43 43 44 45 46 47 48 48 48 48 48 49 49 50 50
29 30 31 31 30 30 30 29 29 29 31 31 30 31 30 31 32 33 34 34 35 36 37 37 38 39 40 41 42 43 44 45 47 48 49 49 50 51 51 52 53 53 54 53
28 28 29 30 29 28 27 27 28 28 28 28 27 27 28 27 28 29 30 31 32 33 34 35 36 37 38 40 41 43 45 46 48 50 51 52 53 54 55 56 56 57 56 56
26 26 27 27 27 27 26 26 26 26 26 24 24 25 24 23 24 26 27 28 29 30 31 33 34 36 38 40 42 44 45 47 50 52 53 55 56 57 58 59 60 60 59 58
23 24 25 25 25 25 25 24 25 24 23 22 21 21 20 21 22 24 25 26 27 28 30 32 34 36 38 40 42 44 46 47 49 51 53 55 57 59 60 61 61 61 61 60
21 22 22 23 24 23 23 23 23 23 22 20 19 18 19 20 21 22 23 25 26 28 30 32 34 36 37 39 41 43 45 47 49 52 54 56 58 59 60 61 61 60 59 59
20 20 21 21 22 22 22 22 22 22 20 18 17 17 18 20 21 22 23 24 26 28 30 31 33 34 36 38 40 42 44 46 48 51 53 55 57 58 59 60 59 59 58 56
19 19 20 20 20 21 20 20 20 20 18 17 16 17 18 19 20 21 22 24 25 27 28 30 31 32 34 36 38 40 42 44 47 49 50 51 53 54 55 56 56 56 55 54
18 18 19 19 18 18 18 19 19 18 17 16 16 17 19 19 20 20 21 23 24 25 26 27 28 29 31 33 35 37 39 41 43 44 44 46 47 47 48 49 50 50 50 50
17 17 18 18 17 18 18 18 18 17 17 16 17 18 19 20 19 20 20 21 22 23 23 24 25 27 29 31 32 34 36 38 38 38 38 39 39 38 38 39 40 40 42 43
16 17 18 18 18 18 18 18 18 17 17 17 17 19 20 19 19 19 19 20 20 20 21 22 23 25 26 27 29 31 32 33 32 31 31 30 29 28 28 28 29 31 33 35
16 17 17 17 18 18 17 18 17 17 17 17 18 19 19 19 19 19 19 18 18 19 19 21 22 23 23 24 25 26 27 27 26 25 24 22 20 19 20 21 21 23 25 28
16 17 17 17 18 17 17 17 17 17 17 17 18 18 19 18 18 18 18 17 17 18 19 19 20 20 20 21 21 20 21 21 21 19 18 15 14 12 13 14 16 18 20 21
16 16 16 17 17 17 17 17 17 17 17 17 17 18 18 17 17 17 16 16 16 16 17 17 17 17 17 17 17 17 17 17 15 13 11 10 9 9 9 11 13 15 15 16
15 16 16 17 17 17 17 17 17 17 16 16 16 16 16 16 16 16 15 15 14 14 15 15 15 14 14 14 14 15 14 13 12 10 8 7 6 5 5 6 8 10 11 12
15 15 16 16 16 16 16 16 16 16 15 15 15 15 15 15 15 15 15 15 15 14 14 13 13 12 12 12 12 12 11 10 9 8 7 6 5 4 3 4 6 8 10 12
14 15 15 15 15 15 16 16 16 16 15 15 15 14 14 14 13 13 13 13 13 12 12 12 11 11 11 10 10 10 9 8 8 7 7 6 5 4 4 5 7 9 11 13
15 15 15 15 15 15 16 16 16 16 16 16 15 15 14 13 13 13 12 12 11 11 11 10 10 10 10 9 9 9 8 7 8 8 8 7 6 6 7 8 9 11 13 15
15 15 15 15 16 16 16 16 17 17 16 16 16 15 14 14 13 12 12 11 11 11 10 9 9 9 8 8 8 8 7 8 8 7 7 7 7 8 9 10 11 13 14 16
15 15 15 16 17 17 16 16 17 17 16 16 16 15 15 14 13 12 12 11 10 10 11 10 9 9 9 8 7 7 7 8 8 8 8 8 9 10 11 12 14 15 17 19
16 16 16 16 17 17 17 17 17 17 17 17 16 15 15 14 13 13 13 12 11 11 11 11 10 10 9 9 8 8 9 9 9 9 10 10 11 12 13 15 16 18 20 22
Wind_Direction
212 214 215 216 218 220 221 223 225 227 228 228 229 229 227 230 232 234 238 242 245 247 248 249 249 248 246 246 245 246 248 249 250 252 254 256 258 259 261 263 265 266 269 271
211 213 212 214 216 219 221 223 225 228 230 230 230 231 231 231 234 236 238 241 244 247 248 249 250 250 250 250 250 250 251 252 252 254 255 256 257 259 261 263 266 268 270 271
208 208 210 211 213 216 220 223 226 229 231 232 233 233 233 233 235 237 239 241 244 247 249 250 251 251 252 252 253 253 253 254 255 255 255 257 258 260 261 264 265 266 267 267
206 205 206 208 210 214 218 221 225 228 230 232 233 235 234 235 236 238 240 242 245 247 248 249 251 252 253 254 254 254 255 256 256 257 258 259 260 261 262 262 263 264 266 267
204 204 205 206 209 213 217 220 224 227 230 232 234 237 234 236 237 238 241 243 245 247 249 250 251 252 253 254 255 256 257 258 259 259 260 260 261 262 262 263 264 265 266 268
201 203 204 205 209 213 216 219 222 226 230 232 233 237 236 236 238 240 241 243 245 247 249 251 252 253 254 255 256 258 259 260 261 262 263 263 263 263 263 264 265 265 266 267
198 201 203 204 208 212 215 219 223 227 230 233 233 237 237 237 238 239 241 243 245 247 249 250 252 253 255 257 258 260 261 262 263 264 265 266 266 266 266 266 266 266 266 266
196 199 201 204 209 212 215 218 222 225 228 231 231 234 235 234 234 236 238 240 243 245 247 249 252 254 257 258 260 262 263 264 265 266 267 267 267 267 267 267 267 266 265 264
196 200 202 204 207 210 213 216 219 223 226 226 225 229 229 227 228 230 234 237 240 243 247 250 252 255 258 260 262 264 266 267 268 269 269 269 269 269 268 267 266 265 264 263
196 199 203 205 207 209 212 213 215 218 220 221 220 222 222 221 224 227 231 235 240 245 249 252 255 258 261 264 266 267 268 269 270 271 271 271 270 269 268 266 265 263 262 261
195 200 202 203 205 207 209 211 213 215 216 216 216 218 220 223 226 230 234 240 244 249 252 256 260 262 265 267 268 270 271 271 272 273 273 272 272 270 268 265 263 262 260 259
195 199 201 202 204 206 208 210 212 214 214 214 217 220 223 228 232 236 241 246 250 254 257 260 262 264 266 269 271 273 274 275 276 276 275 274 273 270 268 265 262 259 258 256
197 201 200 201 203 204 207 209 213 215 215 215 219 228 230 235 239 244 248 252 255 257 259 261 264 267 270 273 276 278 279 280 281 281 279 278 275 272 268 264 261 257 255 254
199 201 202 203 204 205 208 212 215 217 218 219 224 235 240 243 248 250 252 255 257 259 262 265 270 274 278 281 282 283 285 287 287 286 284 281 279 274 269 264 259 255 252 250
202 204 205 206 208 210 213 217 220 223 225 227 231 239 246 249 253 254 257 259 262 265 269 272 277 281 285 287 288 290 292 294 293 291 289 287 282 276 269 263 258 254 250 248
206 208 210 212 214 217 221 224 226 229 232 233 237 242 247 253 256 258 261 264 268 271 275 278 283 287 291 293 295 297 300 302 300 297 295 292 286 278 270 261 254 249 246 245
211 213 215 217 219 221 225 228 233 235 237 237 240 245 249 253 256 259 264 267 271 275 278 281 286 290 296 300 303 305 307 309 308 304 302 299 292 282 268 257 250 244 241 243
217 218 219 221 223 227 227 231 235 237 239 242 244 246 249 252 256 261 264 268 273 277 280 284 288 293 300 306 309 313 317 317 316 313 308 302 300 287 268 252 243 239 239 240
222 224 224 225 228 231 232 233 234 238 242 243 244 246 249 251 257 261 262 267 272 279 284 288 292 297 304 309 313 318 322 326 330 328 323 317 307 287 269 253 242 236 236 241
227 228 229 229 231 235 235 236 237 239 241 243 245 247 249 251 255 259 261 268 274 283 288 291 294 299 306 311 317 323 327 333 338 341 340 332 322 295 268 252 243 239 243 249
231 232 233 234 235 236 236 236 236 236 239 243 245 247 250 251 254 257 262 268 275 283 288 292 295 298 305 309 315 320 327 335 339 343 342 337 328 314 287 261 258 256 256 259
234 236 236 235 235 234 236 236 235 237 239 243 244 247 249 250 252 258 264 270 276 281 286 290 294 298 302 307 311 317 320 325 332 337 339 332 322 315 304 284 281 279 272 272
237 238 237 237 237 237 236 236 237 238 241 242 244 244 246 248 253 259 266 272 277 281 286 289 292 296 301 302 306 313 318 318 318 319 325 324 316 315 311 301 298 295 289 288
239 240 239 238 238 238 237 238 239 240 241 243 243 243 245 249 254 260 266 271 276 279 282 287 293 296 297 301 305 305 308 312 315 318 319 320 318 315 312 307 304 302 300 299
242 242 241 240 242 241 239 240 241 240 241 243 244 243 244 249 253 260 265 267 273 277 276 280 284 288 290 293 301 303 305 307 311 313 314 316 316 314 312 309 307 306 304 303
245 245 244 243 243 242 241 242 241 239 240 242 243 242 244 248 254 260 263 263 268 274 274 277 278 282 288 289 292 294 299 304 307 309 310 311 311 312 313 312 310 309 307 306
Height
5623 5632 5640 5649 5657 5664 5670 5677 5684 5690 5697 5704 5710 5716 5724 5728 5732 5737 5741 5745 5749 5753 5756 5758 5761 5764 5767 5770 5772 5775 5776 5778 5779 5780 5781 5783 5784 5784 5784 5785 5785 5786 5786 5786
5620 5628 5637 5642 5649 5657 5664 5671 5677 5684 5690 5697 5703 5709 5716 5721 5725 5730 5734 5738 5741 5745 5748 5751 5753 5756 5759 5762 5764 5767 5768 5770 5771 5773 5774 5775 5775 5776 5777 5777 5778 5778 5779 5778
5616 5626 5632 5638 5645 5652 5659 5666 5672 5678 5684 5690 5696 5703 5709 5714 5717 5722 5726 5730 5734 5738 5741 5744 5746 5748 5751 5753 5756 5758 5759 5761 5762 5764 5765 5766 5767 5768 5769 5770 5770 5770 5769 5769
5613 5621 5628 5634 5642 5648 5655 5661 5667 5672 5678 5683 5690 5695 5702 5706 5710 5714 5718 5723 5726 5730 5733 5735 5738 5740 5742 5745 5747 5749 5750 5752 5753 5754 5755 5757 5758 5759 5761 5760 5760 5760 5759 5759
5611 5618 5625 5631 5638 5644 5650 5656 5662 5667 5672 5678 5683 5688 5695 5698 5703 5707 5711 5715 5719 5722 5725 5727 5730 5732 5734 5736 5738 5740 5741 5742 5743 5744 5746 5747 5748 5749 5750 5750 5750 5750 5750 5750
5609 5616 5622 5628 5634 5640 5646 5652 5657 5662 5666 5673 5678 5682 5688 5691 5696 5700 5704 5708 5711 5714 5717 5719 5722 5724 5726 5727 5729 5731 5732 5733 5733 5734 5735 5736 5737 5738 5738 5739 5739 5739 5739 5739
5606 5613 5619 5625 5631 5637 5643 5649 5654 5658 5662 5668 5672 5676 5681 5685 5689 5693 5697 5700 5703 5706 5709 5712 5714 5716 5717 5719 5720 5721 5722 5723 5723 5723 5724 5724 5725 5725 5726 5726 5726 5726 5726 5727
5605 5612 5617 5623 5629 5634 5639 5645 5651 5655 5659 5663 5667 5670 5675 5679 5683 5686 5690 5693 5696 5699 5702 5704 5706 5708 5709 5710 5711 5712 5712 5713 5712 5712 5712 5712 5712 5712 5712 5712 5712 5712 5713 5713
5605 5611 5616 5621 5627 5632 5636 5641 5646 5651 5654 5659 5662 5666 5671 5674 5677 5681 5684 5687 5690 5693 5695 5697 5698 5700 5701 5702 5702 5702 5702 5702 5701 5700 5699 5699 5698 5697 5697 5696 5696 5696 5697 5698
5605 5610 5614 5619 5624 5629 5634 5638 5643 5647 5651 5655 5659 5663 5667 5670 5672 5676 5679 5682 5684 5686 5688 5689 5690 5692 5692 5693 5693 5692 5692 5691 5689 5687 5686 5684 5683 5681 5680 5679 5679 5679 5680 5682
5605 5610 5614 5618 5623 5627 5632 5637 5640 5644 5648 5653 5656 5662 5663 5665 5668 5671 5674 5676 5678 5680 5681 5682 5683 5684 5684 5683 5683 5682 5680 5678 5676 5674 5671 5669 5666 5664 5662 5662 5662 5662 5664 5666
5604 5609 5612 5617 5621 5625 5629 5633 5638 5642 5646 5649 5653 5659 5658 5661 5663 5666 5668 5670 5672 5673 5674 5674 5675 5675 5674 5673 5672 5670 5668 5666 5663 5659 5656 5652 5649 5646 5644 5643 5644 5645 5648 5651
5604 5608 5612 5616 5622 5625 5628 5631 5635 5639 5643 5646 5650 5655 5654 5656 5658 5660 5663 5664 5665 5666 5666 5666 5666 5666 5665 5663 5661 5659 5656 5652 5648 5644 5639 5635 5631 5628 5626 5625 5626 5629 5632 5637
5604 5608 5612 5616 5619 5623 5626 5630 5633 5636 5640 5643 5646 5648 5649 5651 5653 5655 5656 5657 5658 5658 5659 5659 5658 5657 5655 5653 5651 5648 5644 5639 5634 5629 5624 5620 5615 5611 5609 5609 5611 5614 5619 5623
5604 5607 5610 5614 5617 5621 5624 5627 5630 5634 5637 5640 5642 5643 5644 5646 5648 5649 5650 5651 5651 5651 5651 5651 5650 5648 5646 5644 5640 5637 5632 5627 5621 5616 5611 5606 5601 5597 5596 5596 5599 5602 5608 5613
5603 5606 5609 5612 5616 5619 5622 5625 5628 5630 5633 5636 5638 5639 5640 5641 5643 5643 5644 5645 5645 5645 5644 5644 5642 5641 5638 5635 5631 5627 5622 5616 5611 5605 5600 5595 5591 5588 5587 5588 5591 5594 5599 5605
5601 5605 5608 5611 5614 5617 5620 5622 5625 5627 5629 5632 5633 5635 5636 5637 5637 5638 5639 5639 5639 5639 5638 5637 5636 5633 5631 5627 5623 5619 5614 5608 5603 5598 5593 5590 5586 5584 5583 5584 5587 5590 5595 5599
5600 5603 5606 5608 5612 5615 5619 5619 5621 5623 5625 5627 5629 5630 5631 5632 5632 5633 5634 5634 5634 5634 5633 5631 5630 5627 5625 5621 5617 5613 5608 5603 5598 5593 5590 5587 5585 5583 5583 5584 5586 5589 5592 5597
5598 5601 5603 5606 5608 5611 5614 5616 5617 5619 5621 5623 5624 5625 5626 5627 5628 5629 5629 5629 5629 5628 5627 5626 5624 5622 5619 5616 5613 5609 5605 5600 5595 5592 5589 5586 5585 5584 5584 5585 5586 5588 5591 5595
5596 5598 5601 5603 5605 5608 5611 5612 5613 5616 5617 5618 5619 5621 5622 5623 5624 5625 5624 5624 5624 5623 5622 5621 5619 5617 5615 5612 5609 5606 5602 5599 5595 5592 5589 5587 5586 5586 5585 5586 5587 5589 5591 5594
5593 5595 5597 5599 5601 5604 5606 5608 5610 5613 5614 5615 5615 5616 5617 5618 5620 5620 5620 5620 5619 5619 5618 5616 5615 5613 5611 5609 5607 5604 5601 5598 5596 5593 5591 5589 5588 5587 5587 5588 5589 5590 5591 5592
5590 5592 5594 5596 5598 5602 5602 5603 5606 5608 5609 5610 5611 5612 5613 5614 5615 5615 5616 5615 5615 5614 5614 5612 5611 5610 5608 5606 5604 5602 5600 5598 5596 5594 5592 5591 5590 5589 5589 5589 5590 5590 5591 5591
5587 5590 5591 5594 5596 5597 5598 5599 5601 5603 5604 5605 5607 5608 5609 5610 5611 5611 5611 5611 5611 5611 5610 5609 5608 5607 5605 5604 5602 5601 5599 5597 5596 5594 5593 5592 5591 5590 5590 5589 5589 5589 5589 5589
5584 5585 5587 5589 5591 5592 5593 5595 5597 5598 5600 5601 5602 5604 5605 5606 5607 5607 5608 5608 5607 5607 5606 5606 5605 5604 5603 5602 5601 5599 5598 5597 5595 5594 5593 5592 5591 5590 5589 5589 5588 5587 5587 5586
5580 5582 5583 5585 5587 5588 5590 5591 5592 5594 5595 5597 5598 5599 5601 5602 5603 5603 5604 5604 5604 5604 5603 5603 5602 5601 5601 5600 5599 5598 5597 5596 5595 5593 5592 5591 5590 5589 5588 5587 5586 5585 5583 5582
5576 5578 5580 5581 5582 5584 5585 5586 5588 5589 5591 5592 5594 5595 5596 5598 5599 5599 5600 5600 5600 5600 5600 5599 5599 5599 5598 5597 5597 5596 5595 5594 5593 5592 5591 5589 5588 5587 5586 5584 5583 5581 5579 5577